GEFSGL_500_meanwind_054.txt.gz
Wind_Speed
5 6 8 10 12 13 14 16 18 19 20 21 21 23 25 25 26 26 26 26 27 27 28 29 30 30 30 30 30 30 30 30 31 31 30 28 25 26 26 26 26 26 26
2 2 4 5 7 8 10 12 13 15 16 17 18 20 21 21 22 23 23 24 25 25 25 26 26 26 26 27 27 27 28 28 28 28 26 25 24 24 25 25 25 25 25
7 5 3 1 2 3 5 7 8 10 11 12 14 16 17 18 19 20 20 21 22 21 21 21 22 24 24 25 25 26 27 26 25 23 22 21 21 22 22 23 24 24 25
12 10 8 7 5 4 3 2 3 4 6 8 10 12 13 14 14 15 16 17 17 18 18 19 19 20 19 20 21 20 20 19 19 18 18 18 18 20 21 22 23 24 25
15 14 12 11 10 9 7 6 5 5 5 6 7 8 8 9 9 11 12 13 14 14 15 15 15 14 14 14 15 15 15 15 16 16 17 17 18 19 20 21 22 23 24
17 16 14 13 13 12 10 9 8 7 7 7 7 8 8 8 9 10 10 11 12 12 12 12 12 11 12 12 12 12 13 13 14 15 15 16 17 18 19 20 21 22 23
19 18 17 16 15 14 13 11 10 9 9 8 8 8 8 9 9 10 10 10 10 10 11 11 11 11 11 10 11 11 11 11 12 13 14 15 16 17 18 19 20 21 22
19 19 18 17 16 15 14 13 12 11 11 10 11 10 9 10 10 10 11 11 11 11 11 11 11 10 10 10 10 10 10 11 12 13 14 14 15 15 16 17 18 19 19
19 19 19 19 18 17 17 16 15 14 13 12 12 11 11 10 10 10 10 10 11 10 11 11 11 10 10 10 10 10 10 11 11 12 12 13 13 13 14 15 15 16 17
20 20 20 19 19 19 19 18 17 16 16 15 13 12 12 10 9 9 8 8 8 8 8 9 9 9 9 9 9 9 10 10 10 10 10 10 11 12 12 13 13 13 14
20 20 20 20 20 20 19 19 18 17 17 16 15 14 13 12 9 8 6 5 4 5 6 6 7 7 8 8 7 7 8 8 8 8 8 8 8 8 9 9 10 10 12
20 21 21 21 21 21 20 20 19 19 18 18 17 16 14 13 11 9 8 5 3 1 2 4 4 5 5 5 5 5 5 5 5 5 5 5 5 5 6 6 7 8 9
20 21 21 21 21 21 21 21 20 20 19 18 18 17 16 15 13 12 10 9 7 5 4 4 4 4 3 4 3 3 3 4 4 4 4 4 3 3 4 5 6 6 7
20 21 21 21 21 21 21 21 21 21 20 19 19 18 17 17 16 15 14 13 11 10 9 8 7 6 6 5 5 4 3 2 2 2 2 2 1 2 2 3 4 5 7
20 20 21 22 21 21 21 22 22 22 21 20 20 20 19 18 17 17 16 15 14 14 13 12 10 9 8 7 6 5 4 3 3 3 2 2 2 2 3 4 5 6 7
19 20 20 21 21 21 21 22 22 22 21 21 21 21 20 19 19 18 17 17 16 15 14 13 12 11 10 9 8 8 7 7 6 6 5 5 5 5 5 5 6 7 8
18 19 20 20 20 20 21 21 21 21 21 21 21 21 21 20 20 19 19 18 17 17 15 14 13 13 12 11 11 10 10 10 9 9 8 7 7 6 6 6 6 7 8
17 18 19 19 20 20 20 20 20 20 20 20 20 21 20 20 20 20 19 19 18 17 17 16 15 15 14 13 13 13 12 11 11 10 9 8 7 7 6 6 6 7 8
15 16 17 17 18 18 18 18 19 18 18 19 19 19 20 20 19 19 19 18 18 17 17 17 16 16 15 15 14 14 13 12 11 10 10 9 8 8 7 7 7 7 8
13 14 15 16 16 17 17 17 17 17 17 17 17 17 18 18 18 18 18 17 17 17 17 16 16 15 15 14 14 13 13 12 11 11 10 10 9 9 8 8 8 8 8
11 12 13 13 14 15 15 15 15 15 15 15 15 15 15 15 16 16 16 16 16 16 16 16 16 15 14 14 14 13 13 13 12 11 11 10 9 9 9 8 8 9 9
10 10 11 12 12 12 13 13 13 13 13 13 12 12 12 13 13 13 13 14 14 14 14 15 15 14 14 14 13 13 13 12 12 11 10 10 9 9 9 9 9 10 10
10 10 10 10 10 11 11 11 11 11 11 11 10 10 10 10 10 11 11 11 11 12 12 12 12 13 12 12 12 12 11 11 11 11 10 10 10 10 10 10 10 11 11
11 10 10 10 10 10 10 10 10 9 9 9 8 8 8 8 8 8 9 9 9 9 9 9 10 10 10 10 10 10 10 10 10 10 10 10 10 10 10 10 11 12 12
12 12 12 11 11 10 10 9 9 9 8 8 7 7 6 6 6 6 6 6 6 7 7 7 7 8 8 8 9 9 9 9 10 10 10 10 10 10 10 11 12 12 13
15 14 14 13 13 12 11 11 10 10 9 8 8 8 7 7 6 6 5 5 5 5 5 6 6 6 7 7 7 7 8 8 9 9 9 10 10 10 11 11 12 12 13

GEFSGL_500_meanwind_060.txt.gz
Wind_Speed
6 4 2 1 3 6 9 12 14 16 18 20 21 22 23 25 25 25 26 27 27 28 28 29 30 30 31 31 32 32 33 33 34 35 35 36 34 34 35 35 34 35 35
10 7 5 3 1 1 4 6 9 12 14 16 17 18 20 21 22 23 25 26 27 28 28 29 30 30 31 31 31 32 32 32 32 32 32 32 32 32 32 32 33 33 33
12 10 7 6 4 1 1 2 4 6 9 11 13 15 17 18 19 21 23 25 26 27 27 27 28 28 29 30 30 30 30 29 29 29 29 30 30 31 31 31 31 30 30
16 14 12 10 8 6 4 1 2 3 5 7 9 11 13 14 16 17 19 21 22 23 24 24 24 23 24 25 25 26 27 27 28 28 28 27 27 27 27 26 25 24 24
18 17 15 13 11 9 7 5 4 2 3 4 6 8 10 11 13 15 16 17 17 18 19 20 20 21 22 22 22 22 23 24 24 24 25 24 24 23 21 21 20 20 19
18 17 16 15 14 12 11 9 7 5 4 3 4 6 8 9 10 11 13 13 15 16 17 17 17 17 19 19 19 18 17 17 16 17 18 18 18 17 16 16 16 15 16
19 18 17 15 14 13 12 11 9 8 7 5 5 6 7 8 9 10 10 11 12 13 14 15 14 14 14 15 15 15 15 14 13 13 13 13 13 13 13 13 13 14 15
20 19 18 17 16 15 14 13 12 10 9 7 6 6 6 6 7 8 9 11 11 12 12 12 12 12 12 12 13 12 12 13 12 12 13 12 12 11 11 12 13 13 14
20 20 19 18 17 16 16 14 13 12 11 9 8 8 7 6 5 4 5 6 8 8 9 9 9 10 10 10 11 11 11 11 11 10 10 10 9 9 10 11 12 13 14
20 20 20 19 18 18 17 17 16 14 13 11 10 9 8 7 6 4 2 4 5 6 7 8 8 8 9 10 10 10 9 9 9 9 9 9 9 9 9 10 10 11 12
20 20 20 20 19 19 19 18 17 16 15 13 12 11 10 9 7 5 3 1 3 4 6 7 7 8 8 9 9 9 8 8 8 8 8 8 8 8 8 8 8 9 10
20 20 20 20 20 20 19 19 19 17 16 15 14 13 12 11 10 8 6 4 3 3 5 6 6 7 7 8 8 8 7 7 6 6 7 6 6 6 6 5 5 6 6
21 21 21 21 21 20 20 19 19 19 18 17 16 15 15 14 13 12 10 8 7 6 6 6 6 7 7 7 7 6 6 6 6 5 5 5 5 5 4 3 2 2 2
20 21 21 20 20 21 20 20 20 20 19 18 17 17 16 15 15 14 13 12 11 9 8 8 8 7 7 7 6 5 5 5 5 5 5 4 4 4 3 2 1 0 0
19 20 20 20 20 20 20 20 20 20 20 20 19 18 17 17 16 15 14 14 13 11 10 9 9 8 8 7 6 6 6 6 5 5 5 4 4 4 4 3 2 2 2
18 18 19 19 19 19 19 20 20 20 20 20 19 19 18 17 17 16 16 15 14 13 13 12 11 10 10 9 8 8 7 6 6 6 6 5 5 5 5 4 4 3 3
16 17 18 18 18 18 18 18 19 19 19 19 19 19 19 18 17 17 16 16 15 15 14 13 12 11 11 10 9 9 8 8 7 7 7 7 6 6 5 4 4 3 3
14 15 15 16 16 16 17 17 17 17 17 18 18 18 18 18 18 18 17 16 16 15 15 14 13 13 12 11 11 10 9 9 9 8 8 7 6 6 5 4 4 4 3
12 13 14 14 15 15 15 15 15 16 16 16 16 16 17 17 17 17 16 16 15 15 14 14 13 13 12 11 11 11 10 10 9 8 7 7 6 6 5 5 4 4 4
10 11 12 12 12 13 13 13 13 14 14 14 14 14 14 14 15 15 15 15 14 14 13 13 12 12 11 11 10 10 9 9 8 8 7 7 7 6 5 5 4 4 3
9 9 9 10 11 11 11 11 12 11 12 12 12 12 12 12 12 12 13 13 13 13 12 12 12 11 11 10 9 9 9 8 8 7 7 6 5 5 4 3 3 3 3
8 8 8 8 9 9 9 9 9 10 10 10 10 10 10 10 10 10 10 10 10 10 10 10 10 9 9 9 8 8 7 7 6 6 5 4 4 3 3 2 2 3 3
9 9 9 8 8 8 8 8 8 8 7 8 8 8 8 8 8 7 7 7 7 7 7 7 7 7 6 6 6 5 5 5 4 4 4 3 3 3 3 3 3 3 4
11 11 10 10 9 9 9 8 8 7 7 7 6 6 6 6 5 5 5 5 5 5 5 4 4 4 4 4 4 3 3 3 3 3 3 3 3 3 3 3 4 4 5
14 13 12 12 11 11 10 10 9 9 8 8 7 7 6 6 6 5 5 4 4 4 4 3 3 3 3 3 3 3 2 2 3 3 3 3 4 4 4 5 5 6 6
17 16 15 15 14 14 13 13 12 11 11 11 10 10 9 9 8 8 7 7 7 7 6 6 5 5 5 5 5 5 5 5 5 5 5 5 5 6 6 7 7 7 8

GEFSGL_500_meanwind_066.txt.gz
Wind_Speed
15 14 13 10 9 8 7 6 6 8 12 14 15 18 21 22 24 25 27 28 27 26 26 27 27 28 28 30 29 29 30 30 30 30 30 30 31 32 32 32 32 32 33
17 16 14 13 11 10 9 7 5 4 6 8 10 13 16 19 21 23 23 25 25 25 25 26 26 26 27 28 29 29 29 28 29 30 29 29 30 30 30 30 30 31 32
18 17 16 15 13 11 10 8 7 5 4 5 6 9 12 15 17 18 19 21 22 23 23 24 25 25 25 26 27 27 27 27 27 28 29 29 28 28 28 28 27 27 28
20 19 18 17 15 13 12 11 9 7 5 4 4 5 8 10 12 14 16 18 20 21 22 22 22 23 23 24 25 25 25 26 26 26 26 27 26 26 26 26 25 24 25
21 20 18 18 17 15 13 12 11 9 7 6 5 6 7 8 10 12 14 16 18 19 20 20 21 21 22 22 22 23 24 24 23 23 22 22 23 23 22 23 23 23 22
21 20 20 19 18 17 16 14 12 10 9 8 7 6 7 7 7 9 11 13 15 17 17 18 19 20 20 20 20 20 20 20 20 19 19 18 18 19 19 19 19 20 20
22 21 21 20 19 18 17 16 14 12 11 9 8 7 7 7 7 7 8 10 11 12 13 15 16 16 16 16 16 17 17 16 16 15 15 15 15 15 16 17 16 15 15
22 22 21 21 21 20 19 17 16 14 13 11 10 9 7 6 5 5 6 7 8 9 11 12 12 13 13 13 13 13 14 14 14 14 14 13 13 14 14 14 12 11 11
23 23 22 22 21 21 20 19 18 17 15 14 13 12 9 6 4 3 3 4 4 6 7 9 9 10 10 10 10 11 12 12 13 12 12 11 10 10 10 9 9 8 8
23 23 23 23 23 22 21 21 20 18 17 15 15 14 12 10 7 4 2 0 2 3 4 6 7 8 7 7 8 8 8 9 10 11 10 9 8 8 7 7 7 6 6
23 23 23 23 23 23 22 22 22 21 19 18 17 16 15 13 11 8 6 4 2 2 3 5 7 7 7 6 7 6 6 7 7 7 7 7 6 6 6 5 5 5 5
22 22 23 23 23 24 23 23 22 22 21 19 19 18 17 15 13 11 9 7 6 4 5 7 7 7 6 6 5 5 5 6 6 6 6 5 5 5 4 4 4 4 4
21 22 22 22 23 23 23 23 22 22 22 21 20 19 18 17 15 14 12 10 8 7 7 8 8 7 6 5 5 4 4 5 5 5 5 5 4 4 3 4 4 3 3
20 20 21 22 22 22 23 23 22 22 22 21 21 20 20 18 17 16 14 13 11 11 10 9 9 8 8 7 6 6 5 5 5 4 5 4 3 3 3 3 3 2 1
18 19 19 20 21 21 22 22 22 22 21 21 21 20 20 19 19 18 17 16 15 13 12 11 10 9 9 8 7 7 6 5 5 5 4 4 3 3 3 2 2 2 1
16 16 17 18 19 20 20 20 20 21 20 20 21 20 19 19 19 19 18 17 16 14 13 12 11 10 10 9 8 7 7 6 5 5 4 4 4 3 3 3 2 2 1
13 14 15 16 17 17 18 18 18 19 19 19 19 19 19 19 18 18 18 17 16 15 14 13 12 11 10 9 9 8 7 6 5 5 5 5 4 4 3 3 3 2 1
12 12 13 13 14 15 15 16 16 17 17 17 17 17 17 17 17 16 16 16 16 15 14 14 13 12 11 10 10 9 9 8 7 6 6 5 5 5 4 3 3 2 2
10 10 11 11 11 12 12 13 14 14 14 14 14 15 15 15 15 15 14 14 13 13 13 12 11 11 10 9 9 9 8 8 7 7 6 6 5 4 4 3 2 2 1
10 10 9 9 10 10 10 10 11 11 12 12 12 12 12 12 13 13 13 13 12 12 11 10 10 9 9 9 8 8 7 7 6 6 5 4 4 3 3 2 1 1 1
10 10 9 9 8 8 8 8 9 9 9 9 9 9 10 10 10 10 10 10 10 10 10 9 9 8 8 7 7 6 6 6 5 5 4 3 3 2 1 1 1 2 2
12 11 11 10 9 8 8 8 7 7 7 7 7 7 7 7 7 7 7 7 7 7 7 7 7 6 6 6 5 5 4 4 4 3 2 2 2 1 2 2 2 3 3
14 13 13 12 11 11 10 9 8 8 7 7 7 6 6 6 6 5 5 5 5 5 5 5 4 4 4 4 3 3 3 2 2 2 2 2 3 3 3 3 4 4 5
18 17 16 15 14 13 12 12 11 10 10 9 9 8 8 7 7 6 6 5 5 5 4 4 4 4 4 4 4 3 3 3 3 3 4 4 4 4 5 5 6 6 7
21 20 19 18 18 17 16 15 14 14 13 13 12 11 11 10 10 9 8 8 7 7 7 6 6 6 6 6 6 6 6 6 6 6 6 6 7 7 7 8 8 9 9
25 24 23 22 21 20 20 19 18 17 17 16 16 15 15 14 14 13 13 12 12 11 11 10 10 10 9 9 9 9 9 9 9 10 10 10 10 10 10 11 11 11 12

GEFSGL_500_meanwind_072.txt.gz
Wind_Speed
18 17 16 15 13 11 10 7 5 5 7 9 12 15 18 21 24 27 28 29 31 33 33 33 32 31 31 31 31 31 32 33 33 34 34 34 33 32 32 31 31 31 30
19 18 17 16 15 13 11 9 7 6 6 7 8 11 14 17 20 23 25 27 28 29 30 30 30 29 29 30 30 30 30 31 32 32 33 33 33 33 32 31 31 31 31
20 20 19 17 16 15 13 11 9 7 6 5 5 6 9 12 15 18 20 23 24 25 26 27 28 28 28 28 29 29 29 30 31 31 30 30 30 31 30 30 30 30 29
21 20 20 19 17 16 14 13 12 10 7 5 4 4 5 7 9 13 15 18 21 22 23 24 25 26 27 27 27 27 27 28 28 29 29 28 27 27 28 27 27 27 26
22 21 20 19 18 17 16 15 13 11 9 6 5 3 3 4 6 8 12 14 16 18 19 21 22 23 24 25 25 24 24 25 25 25 26 25 25 25 25 26 25 24 25
23 22 21 20 19 18 17 16 14 13 10 8 6 4 2 3 4 6 9 11 14 15 16 18 19 20 21 21 20 20 20 21 21 22 23 23 23 22 23 23 23 22 23
23 23 22 21 21 19 18 17 16 14 12 10 8 6 4 3 2 3 7 9 11 12 14 16 17 17 17 17 18 18 18 19 19 19 19 20 20 20 20 20 20 19 19
24 24 24 23 22 20 19 18 17 16 14 12 10 8 6 4 2 0 3 5 8 9 11 13 14 15 15 15 16 15 16 17 18 18 18 18 19 19 18 17 17 17 17
24 24 24 24 23 22 21 20 19 18 16 14 12 11 9 7 5 3 2 2 5 7 8 10 11 12 12 13 14 14 14 15 16 16 15 15 15 15 15 15 15 15 15
23 23 24 24 24 23 22 21 21 20 19 17 15 14 12 10 8 5 3 3 4 5 7 8 10 10 10 11 12 12 12 13 13 13 13 13 13 13 14 14 14 14 14
22 22 23 23 23 23 22 21 21 20 19 19 18 16 15 13 11 9 7 6 5 5 6 7 9 9 9 9 10 10 10 11 11 11 11 11 11 11 12 13 13 13 13
21 21 22 22 22 22 22 21 21 21 20 19 18 17 16 15 13 11 10 8 8 7 8 8 9 8 8 8 9 9 9 9 10 10 10 10 10 9 9 10 11 11 11
19 20 20 21 21 21 21 21 21 20 20 20 19 18 16 15 14 13 11 10 9 9 9 10 10 10 9 9 9 9 9 9 10 9 9 9 9 9 9 9 9 9 10
18 18 19 19 20 20 20 21 20 20 20 20 19 18 17 16 15 15 13 12 11 10 10 10 10 10 9 8 8 8 9 9 9 9 9 9 8 8 8 8 8 8 7
16 16 17 17 17 18 18 19 19 19 18 18 19 18 18 16 15 15 14 13 12 12 11 11 11 10 10 10 9 8 8 8 8 9 8 8 7 7 7 7 7 7 7
14 14 14 15 15 15 15 16 16 17 17 17 17 17 17 16 15 14 14 13 13 12 12 11 10 10 9 9 8 8 8 8 8 7 7 7 7 6 6 7 7 6 6
12 12 12 13 13 13 13 13 13 14 14 15 15 15 15 15 15 14 13 12 12 11 11 10 9 9 8 8 7 7 7 7 7 6 6 6 6 6 6 6 6 6 6
12 11 11 11 11 11 11 11 11 11 11 12 12 13 13 12 12 12 11 11 10 10 9 9 9 8 8 7 7 7 6 6 5 5 5 5 5 5 6 6 5 5 5
13 12 11 11 10 10 10 9 9 9 9 9 9 10 10 10 9 9 9 9 8 8 8 7 7 7 7 6 6 6 5 5 4 4 4 4 5 5 5 5 4 4 4
15 14 13 12 11 11 10 9 8 8 7 7 7 7 7 7 7 6 7 7 6 6 6 5 5 5 4 4 4 4 4 4 3 3 3 3 4 4 5 5 4 4 4
18 17 16 15 13 13 12 11 10 9 8 7 6 6 5 5 5 4 4 4 4 4 3 3 3 3 2 2 2 2 2 2 2 2 3 3 4 4 4 4 4 4 5
22 21 20 18 17 16 15 14 13 12 10 9 8 7 6 6 5 5 4 4 3 2 2 1 1 1 0 0 1 1 2 2 2 2 3 3 4 4 5 5 5 6 6
26 24 23 22 21 19 18 17 16 15 14 13 12 11 10 9 8 7 6 6 5 5 4 4 3 3 3 3 3 3 3 4 4 4 5 5 6 6 7 7 7 8 8
30 28 27 26 25 23 22 21 19 18 17 16 15 14 13 12 11 10 10 9 8 8 7 7 6 6 6 6 6 6 6 6 7 7 7 7 7 8 8 9 9 10 10
34 32 31 30 28 27 26 25 23 22 21 20 19 18 17 16 15 15 14 13 12 12 11 11 10 10 10 9 9 9 9 9 10 10 10 10 10 10 11 11 11 12 12
38 36 35 33 32 31 30 29 27 26 25 24 23 22 22 21 20 19 18 17 16 16 15 14 14 14 13 13 13 13 13 12 12 13 13 13 13 13 13 14 14 15 15

GEFSGL_500_meanwind_078.txt.gz
Wind_Speed
22 22 21 20 19 17 15 12 10 9 8 8 10 13 16 19 22 25 27 29 31 33 34 36 37 38 38 37 37 36 36 36 35 34 34 35 34 35 35 34 33 32 31
23 23 22 21 20 18 16 14 11 10 8 8 8 10 12 15 18 21 23 25 28 30 32 33 34 36 37 36 35 34 35 35 34 34 33 34 34 34 34 34 34 33 34
24 24 24 23 22 20 18 15 13 11 9 8 8 8 9 10 14 17 20 22 24 26 28 30 32 33 34 34 35 35 35 35 34 34 34 34 33 34 35 34 34 34 34
25 24 24 24 23 21 19 17 15 13 10 9 8 7 6 7 9 13 16 19 21 23 25 28 29 30 31 32 32 33 33 33 32 32 32 32 32 32 33 34 33 33 32
25 25 25 25 24 22 21 19 17 14 12 10 9 7 5 4 6 9 12 14 17 19 22 24 25 27 27 28 29 30 30 29 29 29 29 29 30 30 31 31 30 30 29
25 26 26 26 25 23 22 20 18 16 14 12 11 9 6 4 4 5 8 10 12 15 18 20 22 23 24 24 24 26 26 27 27 27 27 27 26 26 27 28 28 28 27
25 25 26 26 26 24 23 21 20 18 17 14 12 11 9 6 3 2 4 7 10 11 14 16 18 20 21 22 22 23 24 24 24 24 24 24 24 25 26 25 25 24 24
24 25 25 25 25 25 24 22 21 19 18 17 15 13 11 9 6 2 1 4 6 8 10 12 14 15 17 19 19 19 20 21 21 21 21 21 22 22 22 22 22 22 22
24 24 24 25 25 24 24 23 22 21 19 18 17 15 13 11 8 6 3 1 2 5 8 10 12 13 13 14 15 15 16 17 18 18 19 19 19 19 19 20 20 20 20
23 24 24 24 24 24 23 23 22 21 20 19 18 17 15 13 11 8 5 3 1 3 5 7 9 11 12 13 13 13 13 13 13 14 15 16 16 16 17 17 17 18 18
22 23 23 23 23 23 23 22 22 21 20 20 19 18 17 15 13 11 8 6 4 3 4 6 7 8 9 10 11 11 11 12 11 12 12 13 13 14 14 15 15 15 15
21 21 22 22 22 22 22 22 22 21 20 19 19 19 18 16 15 13 10 8 6 5 4 4 5 6 7 8 9 10 10 10 10 10 11 11 12 12 12 12 13 13 13
20 20 20 20 21 21 21 21 21 21 20 19 18 18 17 16 15 14 12 10 8 7 5 5 4 6 7 7 8 8 8 8 9 9 10 10 11 10 11 11 12 11 11
19 19 19 19 19 19 19 20 20 20 19 18 17 17 17 16 15 14 13 12 10 9 8 7 6 6 6 6 7 7 7 8 8 8 8 9 9 10 10 10 11 10 10
18 18 18 18 18 17 17 17 18 18 18 17 16 16 16 15 15 14 13 12 11 10 9 8 7 6 6 6 6 6 7 7 7 7 7 8 9 9 10 10 10 10 10
19 18 18 17 17 17 16 15 15 15 15 15 14 14 14 13 13 13 12 11 10 9 8 8 7 7 6 6 6 6 6 6 6 6 7 7 7 8 8 8 9 9 9
20 19 19 18 17 17 16 15 14 14 13 13 12 12 12 11 11 10 10 9 8 7 6 6 5 5 5 5 5 5 5 5 5 6 6 6 6 7 7 7 7 8 8
21 21 20 19 19 18 17 16 15 14 13 12 11 10 10 9 8 8 7 6 6 5 5 4 4 4 3 3 3 3 4 4 4 5 6 7 7 7 7 7 7 8 8
24 23 22 21 20 19 18 17 16 15 14 13 12 10 9 8 7 6 5 5 4 3 2 1 1 1 1 1 1 2 3 3 4 5 6 6 7 7 7 8 8 8 8
27 26 25 24 23 22 21 19 18 17 16 15 13 12 11 10 9 8 6 5 5 4 3 3 2 2 2 2 3 3 3 4 5 5 5 6 7 7 8 8 8 8 8
31 30 29 28 26 25 24 23 21 20 19 18 16 15 14 13 11 10 9 8 7 7 6 5 5 5 5 5 5 5 5 5 5 5 5 6 7 8 8 9 9 9 9
35 34 32 31 30 29 27 26 25 24 22 21 20 19 17 16 15 14 13 12 11 10 9 8 8 7 7 7 7 7 7 7 7 7 7 7 8 8 9 10 10 10 11
40 38 37 35 34 33 31 30 29 27 26 25 24 22 21 20 18 17 16 15 14 14 13 13 12 11 11 10 10 10 10 10 10 9 9 10 10 10 10 11 11 12 12
44 43 41 40 39 37 36 34 33 31 30 29 27 26 25 24 22 21 20 19 18 17 16 16 15 15 15 14 13 13 13 13 13 13 13 13 13 13 13 13 13 14 14
49 48 46 45 43 42 40 39 37 36 34 33 31 30 29 27 26 25 24 23 22 21 20 19 18 18 18 17 17 17 16 16 16 16 16 16 16 16 16 16 16 16 16
52 52 51 50 48 47 45 43 42 40 39 37 36 34 32 31 30 29 28 27 26 25 24 23 22 21 21 20 20 20 19 19 19 19 19 18 18 18 18 18 19 19 19

GEFSGL_500_meanwind_084.txt.gz
Wind_Speed
25 25 24 23 22 21 19 16 13 11 10 8 7 9 11 13 16 19 21 23 26 28 30 33 36 37 38 38 39 39 39 38 37 36 35 34 34 33 33 33 33 33 33
26 26 25 24 22 21 19 17 15 13 12 10 8 8 9 11 14 17 19 21 23 25 28 30 33 35 37 37 38 38 38 38 36 35 35 35 35 34 33 34 34 34 34
26 26 25 25 23 21 20 19 17 15 14 12 10 8 7 8 11 14 16 19 21 23 25 27 30 33 34 35 35 36 36 36 36 35 35 35 35 35 35 34 34 33 34
26 26 25 25 24 22 21 20 18 17 15 13 11 10 8 6 8 10 13 16 18 21 23 24 26 28 31 32 33 33 35 35 35 34 34 34 35 35 34 34 34 34 33
26 26 26 25 24 23 22 21 20 19 17 15 13 11 10 7 6 7 10 13 15 18 20 22 23 24 27 28 30 31 32 33 33 33 32 31 32 33 33 33 33 33 32
25 25 26 25 25 24 23 22 21 20 19 16 15 13 11 9 6 6 7 10 12 14 17 19 21 22 23 25 28 28 29 30 32 32 32 30 30 31 31 31 31 31 32
24 24 25 25 25 24 24 23 23 21 20 19 17 14 13 10 8 5 4 7 9 11 13 16 18 19 20 21 24 25 25 26 28 29 28 28 28 28 29 30 29 29 30
24 24 24 24 24 24 23 23 23 22 21 20 19 17 14 12 9 6 4 2 5 7 10 13 15 17 18 19 20 23 23 23 24 25 26 27 27 27 28 28 28 27 28
23 24 24 24 23 23 23 23 23 23 22 21 20 19 17 14 11 8 6 3 1 4 7 9 11 13 15 17 18 19 20 21 22 22 23 25 25 25 24 25 24 24 25
22 23 23 23 23 22 22 22 23 23 23 21 20 20 18 15 12 10 8 6 4 1 2 6 8 10 13 14 16 17 18 19 20 20 20 22 23 23 22 22 22 22 23
21 22 22 22 21 21 21 21 22 22 22 22 21 20 18 17 14 12 10 8 6 4 1 2 5 7 9 12 13 14 15 16 17 18 18 19 19 19 20 21 21 21 21
21 21 21 21 20 20 19 20 21 21 21 21 20 19 19 17 15 13 11 9 8 6 3 1 3 5 7 9 10 11 13 14 14 16 17 18 18 18 18 18 19 18 18
20 20 20 20 20 19 18 19 19 19 20 20 19 19 18 17 16 14 12 9 7 6 5 2 1 4 6 8 8 9 11 12 12 14 15 15 16 16 17 17 18 18 18
20 20 20 20 19 19 18 18 18 18 18 18 18 17 17 16 15 14 12 10 8 7 5 3 1 2 4 6 8 8 9 10 11 12 13 13 14 15 16 16 17 17 17
21 21 20 20 20 19 19 18 18 17 17 17 16 16 16 15 14 13 12 10 8 6 5 3 2 1 2 4 6 7 8 9 9 10 11 12 13 14 15 15 15 15 15
22 21 21 21 20 20 19 19 18 18 17 17 16 15 15 14 13 12 11 9 8 7 5 4 2 1 2 3 5 6 8 9 9 9 10 11 12 14 14 14 15 15 16
23 23 23 22 22 21 21 20 19 19 18 17 17 16 15 14 13 12 11 9 8 7 5 4 3 1 2 3 4 5 7 8 8 9 10 10 12 13 13 14 14 14 14
26 25 25 24 24 23 22 22 21 20 19 19 18 17 16 15 14 13 12 11 9 8 7 6 4 4 4 4 5 6 7 7 8 9 10 10 11 12 13 14 14 15 15
28 27 27 26 26 26 25 24 24 23 22 21 20 19 18 17 16 15 14 13 12 11 10 9 8 7 6 6 7 7 8 9 9 10 11 11 12 12 13 13 14 14 14
30 30 30 29 29 28 28 27 27 26 25 24 23 22 21 20 19 18 17 16 15 14 14 13 12 11 10 10 10 10 10 10 10 10 11 12 12 13 13 14 14 14 14
32 32 33 32 32 32 32 31 30 30 29 28 27 26 25 24 23 21 20 19 18 17 17 16 16 15 15 14 14 14 14 13 13 13 13 13 14 14 14 15 15 16 15
35 35 35 35 35 35 35 34 34 34 33 33 31 30 29 28 27 26 25 24 22 21 20 20 19 19 18 17 17 17 16 16 16 16 16 16 15 15 16 16 16 17 17
38 38 38 38 38 38 38 38 38 37 37 37 37 36 34 33 32 31 30 29 27 26 25 24 23 23 22 21 20 20 19 19 19 19 18 18 18 17 17 17 17 18 18
41 41 41 41 41 42 42 42 42 42 42 41 41 41 40 39 37 35 34 33 32 31 30 29 28 27 26 26 25 24 23 23 22 22 22 21 21 20 20 20 20 20 20
43 44 44 44 45 45 45 46 46 46 46 46 46 46 45 44 43 41 39 38 37 36 34 33 32 31 30 30 29 28 28 27 26 26 25 25 24 24 24 23 23 23 23
47 47 48 48 48 49 49 49 50 50 50 50 50 50 50 49 48 46 45 43 42 40 39 38 37 36 35 33 32 32 31 31 30 30 29 29 28 27 27 26 26 26 25

GEFSGL_500_meanwind_090.txt.gz
Wind_Speed
26 26 25 24 24 23 22 21 19 17 15 13 11 10 9 9 10 12 13 15 17 19 22 24 26 27 30 31 32 33 34 35 34 33 32 32 33 32 32 32 31 32 32
26 26 25 25 24 23 23 22 20 19 17 15 13 11 10 9 9 10 11 13 15 17 19 22 24 26 28 29 31 32 32 34 33 33 32 32 33 33 32 32 31 31 31
26 26 26 25 24 24 24 23 21 20 19 17 15 13 11 10 9 9 10 11 13 15 17 19 21 24 25 27 29 30 30 31 31 32 31 31 32 32 32 32 32 31 31
25 25 25 25 24 24 23 23 23 22 20 18 17 15 14 12 10 9 9 9 10 12 14 15 17 20 22 23 26 27 29 30 30 30 30 31 31 31 32 32 32 31 31
24 25 25 24 24 24 24 24 24 23 21 20 18 17 16 13 11 10 9 8 8 9 11 13 14 17 19 21 23 25 26 27 28 29 29 30 31 30 31 32 32 31 31
24 24 24 24 24 24 24 24 24 24 23 21 20 19 18 16 13 10 9 7 6 7 8 10 12 14 16 18 20 21 23 25 26 28 29 28 28 29 30 31 31 31 30
22 23 23 24 24 24 23 23 24 24 24 23 21 20 19 18 14 11 9 8 7 6 5 7 9 11 14 17 18 19 21 23 24 26 27 27 27 28 28 29 30 30 29
21 21 22 23 23 23 23 23 23 23 23 23 23 21 20 19 16 13 11 9 8 6 4 5 6 8 10 13 15 17 19 20 22 23 25 26 27 26 26 27 27 28 28
21 21 21 22 22 22 22 23 23 23 22 22 22 22 21 20 18 15 12 10 9 8 6 4 5 6 8 10 13 15 17 19 21 22 23 23 24 25 25 25 26 27 27
21 21 21 21 21 21 22 22 22 22 22 21 21 21 21 20 18 16 13 11 10 9 7 5 4 5 7 8 10 12 15 16 18 20 21 22 22 23 24 24 25 26 26
20 21 21 21 21 21 21 21 21 21 21 21 21 20 20 20 18 16 15 12 11 10 9 7 6 6 7 8 9 10 12 13 15 17 18 20 22 23 24 24 24 24 25
21 21 21 21 21 21 21 21 20 20 20 20 20 20 20 19 18 17 16 14 12 11 10 9 7 7 7 7 8 9 10 12 13 15 16 18 20 21 23 23 23 24 23
22 22 22 21 21 21 21 21 20 20 20 19 19 19 19 18 18 17 17 15 13 12 11 10 8 7 7 7 7 8 9 10 11 12 14 16 18 19 19 20 22 23 22
23 23 23 22 22 22 22 21 21 21 20 20 19 18 18 17 17 17 16 16 14 13 12 11 9 8 7 6 6 6 8 9 10 11 13 13 15 17 17 18 19 21 20
25 25 24 24 23 23 23 22 22 21 21 20 20 19 18 17 17 16 16 15 15 14 13 12 11 9 8 7 7 7 8 9 10 11 11 12 13 14 16 17 18 19 19
26 26 25 25 25 25 24 23 23 23 22 22 21 20 20 19 18 17 16 16 15 14 13 13 12 11 9 8 8 8 8 9 10 10 11 12 13 14 15 16 18 18 18
28 27 27 27 27 26 26 25 24 24 24 23 23 22 21 21 20 19 18 17 17 16 15 14 13 12 11 10 10 10 10 11 11 12 13 13 14 14 15 16 17 18 19
29 29 29 29 28 28 27 27 26 25 25 25 25 24 24 23 22 22 21 20 19 18 17 17 16 15 14 13 13 13 13 13 14 14 14 15 15 15 16 16 17 18 18
31 31 31 30 30 30 29 29 28 28 27 27 27 27 26 26 25 25 24 23 22 21 21 20 19 18 18 17 17 16 16 16 16 16 16 17 17 17 18 18 18 19 19
32 33 33 32 32 31 31 31 31 30 30 30 30 30 29 29 28 28 27 27 26 25 25 24 23 23 22 22 21 20 20 19 19 19 18 18 18 18 19 19 19 19 20
34 34 34 34 34 34 34 34 33 33 33 33 33 34 33 33 32 32 31 31 30 30 29 28 27 27 26 26 25 25 24 23 22 22 22 21 21 20 20 20 20 20 20
35 35 35 35 35 35 36 36 36 36 36 36 36 36 37 37 36 36 36 36 35 35 34 34 33 32 31 30 29 28 28 27 27 26 26 26 25 24 24 24 23 23 23
37 37 37 37 37 37 37 38 38 39 39 39 39 39 39 40 40 40 41 41 41 40 40 39 38 37 36 35 34 33 32 31 31 30 29 29 29 28 27 27 26 26 26
39 39 39 39 39 39 39 40 40 41 41 42 42 43 44 44 44 45 45 45 45 45 45 45 44 43 42 41 40 39 38 37 36 35 34 33 32 31 30 30 29 28 28
40 40 40 41 41 41 42 43 43 44 45 45 46 47 48 48 49 49 49 49 49 49 49 49 49 48 46 45 45 44 43 42 41 40 39 37 36 35 34 33 32 31 31
42 42 42 43 43 44 45 46 46 47 48 49 49 50 51 51 52 52 52 52 52 53 52 52 51 51 52 51 49 48 47 47 46 45 44 43 41 39 38 37 36 35 34

GEFSGL_500_meanwind_096.txt.gz
Wind_Speed
24 24 24 23 22 22 22 21 21 20 19 17 15 12 9 7 6 7 8 9 12 15 17 19 21 23 24 26 28 31 33 34 34 34 35 35 35 35 37 36 35 36 35
23 23 24 23 22 22 22 21 21 20 19 18 16 14 12 9 7 7 7 7 9 11 13 16 18 21 22 24 26 28 30 31 32 33 34 34 34 35 36 37 36 36 36
22 23 23 23 23 22 22 22 21 21 20 18 17 15 14 11 8 7 6 6 7 8 10 13 15 18 19 21 23 25 27 29 30 32 32 33 33 34 34 35 35 35 34
22 22 22 22 22 22 22 21 21 21 20 19 17 16 14 13 10 8 7 5 5 6 7 9 11 14 16 18 20 21 24 26 28 30 32 32 32 32 33 33 33 33 33
21 21 21 22 22 22 22 21 21 21 21 20 19 17 15 13 11 9 8 6 5 4 5 6 9 12 14 16 18 19 22 24 26 28 29 30 31 32 32 32 32 32 32
21 21 21 21 21 21 21 21 21 21 21 20 20 18 17 15 14 11 10 8 6 5 5 5 7 9 12 14 15 17 20 22 24 26 28 28 29 31 31 31 31 32 32
20 21 21 21 21 21 21 21 21 21 20 20 20 19 18 16 14 12 11 10 7 6 5 5 6 8 10 11 13 15 17 19 21 23 25 27 28 29 30 30 31 31 32
20 21 21 21 21 21 21 20 20 20 20 19 19 18 18 17 15 14 12 11 9 7 6 5 5 6 8 10 12 13 15 17 19 21 22 25 26 28 28 28 29 30 30
20 21 21 21 21 21 21 20 20 20 20 19 18 18 17 17 16 14 13 12 10 9 8 7 5 5 6 8 10 12 14 17 18 19 21 22 24 26 27 27 28 29 30
20 21 21 20 20 21 21 21 20 20 19 19 18 18 17 17 16 15 14 13 12 10 9 8 7 6 6 7 9 10 12 14 16 18 20 21 22 24 26 26 27 28 29
21 21 21 21 21 21 21 21 21 20 19 19 18 18 17 16 16 15 14 13 12 11 10 9 8 7 7 7 7 9 10 12 14 16 18 20 21 23 25 26 27 27 28
22 22 22 22 22 22 21 21 21 20 20 20 19 18 17 17 16 15 14 14 13 12 11 11 10 9 8 8 7 8 9 10 12 14 15 17 19 21 23 26 26 26 27
23 23 23 23 23 22 22 21 21 21 20 20 19 19 18 17 16 15 15 14 13 13 12 12 11 11 10 9 9 9 10 11 11 13 14 16 17 19 21 23 25 26 27
24 24 24 24 23 23 22 22 22 21 21 20 20 19 19 18 18 17 16 15 15 14 14 13 12 12 11 10 10 10 10 11 12 13 15 16 17 18 20 22 23 25 26
26 26 25 25 24 24 23 23 23 23 22 21 21 20 19 19 19 18 18 17 17 16 16 15 15 14 13 12 12 12 12 12 13 14 15 16 18 19 20 21 22 23 24
27 27 26 26 25 25 24 24 24 24 23 23 22 21 20 20 19 19 19 19 19 18 18 18 17 17 16 15 15 14 14 14 15 15 16 17 17 18 20 21 22 23 24
28 28 27 27 26 26 25 25 25 25 25 24 24 23 22 22 22 21 21 21 21 21 21 20 20 19 19 19 18 18 18 18 18 18 18 19 19 20 20 21 22 23 24
30 29 29 28 28 27 27 26 26 26 26 27 26 26 25 25 25 25 24 24 24 24 23 23 23 22 22 22 22 22 22 21 21 21 21 21 22 22 22 22 23 24 24
31 31 30 30 29 29 29 29 29 28 28 28 28 29 28 28 28 28 27 27 27 27 27 27 27 27 26 26 26 25 26 26 26 25 25 25 25 25 25 25 25 26 26
33 33 32 32 31 31 31 31 31 31 31 30 30 30 31 31 31 31 31 30 30 30 30 31 31 31 31 31 31 30 30 30 30 30 29 29 28 28 28 28 28 28 29
35 35 34 34 33 33 33 33 34 34 34 33 33 32 32 32 33 33 34 34 34 34 34 35 35 35 36 35 35 34 34 34 34 34 34 34 33 32 32 31 31 32 32
37 37 36 36 35 35 36 36 36 36 35 35 35 35 34 34 35 35 36 36 37 37 38 39 39 39 40 40 40 40 39 39 39 38 38 38 38 37 36 36 35 35 35
39 38 38 38 37 37 37 37 37 37 37 37 37 37 37 37 38 38 39 40 40 41 42 43 43 43 44 44 44 44 45 45 44 44 43 43 42 42 41 40 40 39 39
40 40 39 39 38 38 38 38 38 39 38 39 39 39 39 40 41 41 42 43 44 44 45 46 46 47 48 48 48 48 49 49 49 49 48 48 47 46 46 45 45 44 43
41 41 40 40 40 39 40 40 40 40 40 41 41 41 42 43 44 44 45 46 47 47 48 49 49 50 51 51 52 52 53 53 53 53 53 53 52 50 50 49 48 48 47
42 42 41 41 41 41 41 41 42 42 43 43 43 44 44 45 46 47 48 49 50 50 51 52 52 53 53 54 54 54 55 55 56 56 56 56 55 54 54 53 52 51 51

GEFSGL_500_meanwind_102.txt.gz
Wind_Speed
21 22 23 23 23 23 23 23 22 21 20 19 17 15 13 11 8 6 6 6 7 9 10 12 15 17 20 21 23 24 26 28 29 31 33 34 35 36 36 37 37 37 36
21 22 22 22 22 23 23 23 22 21 20 19 17 15 14 12 10 8 6 6 6 7 8 10 12 15 16 18 20 22 24 26 28 29 31 33 34 35 36 37 36 37 37
20 21 21 21 22 22 22 22 22 21 20 19 18 16 14 13 11 9 8 7 6 6 6 8 10 12 14 17 19 21 21 23 25 27 29 30 32 34 34 36 36 37 37
20 20 21 21 21 21 22 21 21 21 20 19 18 16 15 14 13 11 10 8 7 6 6 7 9 10 11 14 17 19 20 21 22 24 26 28 30 32 34 34 36 37 38
19 20 20 21 21 21 21 20 20 20 20 19 18 17 16 14 13 12 11 10 8 7 5 6 7 8 10 11 14 17 18 19 20 22 23 25 27 29 31 33 34 35 36
19 19 19 20 20 20 20 20 20 20 20 19 18 17 16 15 14 13 12 11 9 8 7 6 6 7 9 11 12 14 15 17 18 20 22 23 24 26 29 30 32 34 34
18 18 19 20 20 20 19 19 19 19 19 19 18 17 16 15 14 13 13 11 10 9 8 7 7 7 8 10 11 12 14 16 16 17 19 21 23 25 26 28 30 31 33
18 18 19 19 19 19 19 19 19 19 19 18 17 16 16 15 14 13 13 12 11 10 9 9 8 7 7 9 10 11 13 15 16 16 18 20 21 23 24 26 28 29 31
18 18 19 19 19 19 19 19 19 19 18 18 17 16 15 15 14 14 13 12 12 11 10 10 9 8 8 8 9 10 11 13 16 17 17 19 20 21 22 24 26 27 29
18 18 19 19 19 19 19 19 19 18 18 18 17 16 15 15 14 14 14 13 13 12 11 11 10 9 9 9 9 10 10 12 13 15 16 17 18 19 21 22 23 25 27
18 19 19 19 19 19 19 19 18 18 18 18 17 16 15 15 14 14 14 14 13 13 12 12 11 11 10 10 10 10 10 11 12 14 15 16 17 18 20 22 23 24 25
19 20 20 20 19 19 19 19 18 18 18 18 17 17 16 15 15 14 14 14 13 13 13 12 12 12 12 11 10 10 11 12 12 14 15 16 17 19 20 21 22 24 24
20 20 21 20 20 20 20 19 19 19 18 18 18 18 17 16 16 15 15 14 14 14 14 13 13 12 12 12 12 12 11 12 13 14 15 16 17 19 20 21 22 23 24
21 21 21 21 21 20 20 20 20 20 19 19 19 19 18 17 17 16 16 15 15 15 15 14 14 14 14 14 14 14 14 13 14 14 15 17 18 19 20 21 23 24 25
22 22 22 22 22 21 21 21 21 21 21 20 20 20 19 19 18 18 18 17 16 16 16 16 16 15 16 16 16 16 15 15 15 16 17 18 19 19 20 22 23 25 26
23 23 23 23 23 23 23 23 23 23 22 22 22 21 21 21 21 20 20 20 19 19 18 18 18 18 18 18 18 18 18 18 18 18 18 19 20 21 22 23 24 26 26
25 25 25 25 25 25 25 25 25 24 24 23 23 23 23 23 23 23 22 22 22 21 21 21 20 20 20 20 21 21 21 21 22 22 22 22 23 23 24 25 25 27 27
27 27 27 27 27 27 27 27 26 26 26 26 26 25 25 25 25 25 25 24 24 24 24 24 24 24 23 23 24 24 24 25 25 26 26 26 26 27 27 28 28 28 29
30 30 30 29 29 29 29 29 28 28 28 28 28 28 28 27 27 27 26 26 26 26 26 26 27 27 27 27 27 27 27 28 28 29 29 30 31 31 31 31 31 32 32
32 32 32 32 32 32 31 31 31 31 30 30 31 30 30 29 29 29 29 29 29 29 29 29 29 29 30 30 30 30 31 31 31 32 32 33 34 35 35 35 35 35 35
35 35 34 34 34 34 34 34 33 33 33 33 33 32 32 31 31 31 31 31 32 32 32 32 32 32 33 33 33 34 34 35 35 36 36 37 37 38 38 39 40 40 40
37 37 37 37 37 36 36 36 36 36 35 35 35 34 34 34 33 33 34 34 34 34 34 35 35 35 36 36 37 37 38 38 39 39 40 41 41 42 42 43 43 43 44
39 39 39 39 39 39 38 38 38 38 37 37 37 36 36 36 36 36 36 36 36 37 37 37 38 38 39 40 40 41 42 42 42 43 43 44 45 45 45 46 46 46 47
42 42 42 41 41 40 40 40 39 39 39 39 38 38 38 38 38 39 39 39 39 39 39 40 40 41 41 42 43 44 45 45 46 47 47 48 48 48 49 49 49 50 50
43 43 43 42 42 42 41 41 41 41 41 40 40 40 40 40 41 41 41 41 41 41 41 42 42 43 44 45 46 47 48 48 49 50 51 51 51 52 52 52 52 52 53
45 44 44 44 43 43 43 43 43 43 42 42 42 42 42 42 42 42 42 42 42 43 43 44 45 46 46 47 48 49 50 51 52 52 53 54 54 54 54 54 54 54 54

GEFSGL_500_meanwind_108.txt.gz
Wind_Speed
15 16 16 17 17 18 18 18 18 17 16 16 15 13 11 9 8 7 4 3 4 5 7 9 11 13 15 17 19 22 23 25 26 26 28 30 32 33 33 34 33 34 34
14 15 16 16 17 17 17 17 17 17 16 15 15 13 12 10 9 7 6 3 3 4 6 7 9 11 12 14 17 19 21 22 24 24 26 27 29 30 31 33 33 34 35
14 14 15 16 16 16 16 17 17 17 16 15 14 14 13 11 10 8 6 5 3 4 5 6 8 9 10 12 15 16 18 20 21 22 23 24 26 27 30 31 33 33 34
13 14 15 15 16 16 16 16 16 16 15 15 14 13 13 12 11 10 8 6 4 4 4 5 7 8 10 11 13 15 16 18 19 21 21 23 24 25 27 29 31 32 33
13 14 14 15 15 15 15 15 15 15 15 14 13 13 12 12 11 10 9 8 6 4 4 5 6 8 9 10 12 14 15 17 18 20 20 21 23 24 25 27 29 31 32
13 13 14 15 15 15 15 15 15 15 15 14 13 13 12 12 11 10 10 9 7 6 4 4 5 7 9 10 11 13 14 16 17 19 20 21 22 23 23 24 26 28 29
12 13 14 15 15 14 14 15 15 14 14 14 13 13 13 12 11 10 9 9 8 8 6 5 5 6 7 9 10 11 12 14 16 18 19 20 21 22 23 23 25 26 28
12 13 14 15 15 14 14 14 14 14 14 14 13 13 12 12 11 10 9 9 9 8 7 6 6 6 7 8 9 11 12 13 14 16 18 19 20 21 21 22 23 25 26
13 13 14 14 15 15 14 13 13 13 13 13 13 13 12 12 11 11 10 9 9 9 8 8 8 7 7 8 9 10 12 13 14 15 17 19 19 20 21 22 22 23 24
14 14 14 14 14 14 14 14 13 13 13 13 13 13 13 12 12 11 11 11 10 10 9 9 9 8 8 8 9 10 11 12 14 15 17 18 19 20 21 21 22 23 24
15 15 15 15 15 15 15 14 14 14 13 13 13 13 13 13 13 13 12 12 12 12 11 10 10 10 10 10 10 11 12 12 13 14 15 17 18 19 20 22 22 23 24
17 17 16 16 16 15 15 15 15 15 15 14 14 14 14 14 14 14 13 13 13 13 12 11 11 11 11 11 11 12 12 13 13 14 15 17 18 19 20 21 23 24 25
19 19 18 18 17 17 16 16 16 16 16 16 16 16 16 15 15 15 15 15 14 14 14 13 13 13 13 13 13 14 14 14 15 15 16 17 18 19 20 21 23 24 25
22 21 20 20 19 19 18 18 18 18 17 17 17 17 17 17 17 17 17 16 16 16 16 15 15 15 15 15 15 15 15 16 16 17 18 18 19 20 21 22 23 25 25
24 23 23 22 21 21 20 20 19 19 19 19 19 19 19 19 19 19 19 19 18 18 18 17 17 17 18 18 18 18 18 18 19 19 19 20 21 22 22 23 24 25 26
26 25 25 24 24 23 23 22 22 21 21 21 21 21 21 21 21 21 21 21 20 20 20 20 20 20 20 20 20 20 21 21 21 21 22 22 22 23 24 25 26 27 27
28 27 27 26 26 25 25 24 24 23 23 23 23 23 24 24 24 24 24 23 23 22 22 22 22 23 23 23 23 23 23 24 24 24 25 25 25 26 26 27 27 28 29
31 30 29 29 28 28 27 27 26 26 26 26 26 26 26 26 26 26 26 26 25 25 24 24 24 25 25 25 25 25 26 26 26 27 27 28 28 29 29 30 30 31 31
33 32 32 31 31 30 30 29 29 29 29 29 29 28 28 28 28 28 28 28 28 27 27 27 27 27 28 28 28 28 28 28 28 29 29 30 31 31 32 33 33 34 34
36 35 34 34 33 33 33 32 31 31 31 31 31 31 31 31 31 31 30 30 30 30 30 30 30 30 30 31 31 31 31 31 31 31 32 32 33 34 35 35 36 37 38
38 37 37 37 36 35 35 34 34 34 34 33 33 33 33 33 33 32 32 32 32 32 32 32 32 32 33 33 33 33 33 33 34 34 34 35 36 37 37 38 39 40 40
40 40 39 39 38 38 37 37 36 36 36 36 36 36 36 36 35 35 35 34 34 34 34 34 34 34 35 35 35 35 35 35 36 36 37 38 39 40 40 41 41 42 43
42 42 42 41 41 40 40 39 39 38 38 38 38 38 38 38 37 37 37 37 37 36 36 36 36 36 36 36 36 37 37 38 38 39 39 40 41 42 43 44 44 45 45
44 43 43 42 42 42 41 40 40 40 40 40 40 40 39 39 39 38 38 38 38 38 38 38 38 37 37 37 38 38 39 40 41 41 42 43 43 44 45 46 46 47 48
44 43 43 43 42 42 42 42 42 42 42 41 41 41 40 40 40 40 40 39 39 39 39 39 39 39 39 39 40 40 41 42 43 43 44 44 45 46 46 47 48 49 50
44 44 44 44 43 43 43 43 42 42 42 42 42 42 41 41 41 41 41 41 41 41 40 40 40 40 40 40 41 41 42 43 44 45 45 46 46 47 48 48 49 50 50